When you browse on this site, cookies collect data to enhance your experience and personalize the content and advertising you see.
Visit our Privacy Policy to learn more. By continuing to use the site, you agree to this use of cookies and data.
  • In France
  • List of Countries
  • For 7 days
  • Water Temperature
  • Weather Map
  • Weather Widgets
  • user-avatar
    Login

    Hourly Weather Biskira

    Today, 21 February, Friday

    Time Temperature Precipitation Wind Pressure Humidity
    00:00 +14°C° 0 mm 0 mps 759 mmHg 58%
    01:00 +13°C° 0 mm 0 mps 759 mmHg 59%
    02:00 +13°C° 0 mm 0 mps 759 mmHg 60%
    03:00 +13°C° 0 mm 0 mps 758 mmHg 60%
    04:00 +13°C° 0 mm 0 mps 759 mmHg 61%
    05:00 +13°C° 0 mm 0 mps 759 mmHg 61%
    06:00 +13°C° 0 mm 1 mps 759 mmHg 62%
    13:00 +22°C° 0 mm 1 mps 759 mmHg 34%
    14:00 +23°C° 0 mm 2 mps 759 mmHg 31%
    15:00 +23°C° 0 mm 2 mps 759 mmHg 29%
    16:00 +21°C° 0 mm 2 mps 759 mmHg 31%
    17:00 +21°C° 0 mm 2 mps 759 mmHg 32%
    18:00 +20°C° 0 mm 2 mps 759 mmHg 33%
    19:00 +19°C° 0 mm 2 mps 760 mmHg 35%
    20:00 +20°C° 0 mm 1 mps 760 mmHg 36%
    21:00 +19°C° 0 mm 1 mps 760 mmHg 37%
    22:00 +18°C° 0 mm 1 mps 760 mmHg 38%
    23:00 +18°C° 0 mm 1 mps 760 mmHg 39%

    Tomorrow, 22 February, Saturday

    Time Temperature Precipitation Wind Pressure Humidity
    00:00 +16°C° 0 mm 1 mps 760 mmHg 40%
    01:00 +16°C° 0 mm 1 mps 760 mmHg 40%
    02:00 +15°C° 0 mm 1 mps 760 mmHg 40%
    03:00 +15°C° 0 mm 1 mps 760 mmHg 40%
    04:00 +14°C° 0 mm 1 mps 761 mmHg 40%
    05:00 +14°C° 0 mm 1 mps 761 mmHg 39%
    06:00 +14°C° 0 mm 2 mps 761 mmHg 38%
    07:00 +16°C° 0 mm 1 mps 762 mmHg 35%
    08:00 +18°C° 0 mm 1 mps 762 mmHg 31%
    09:00 +20°C° 0 mm 1 mps 763 mmHg 27%
    10:00 +21°C° 0 mm 1 mps 762 mmHg 26%
    11:00 +22°C° 0 mm 1 mps 762 mmHg 25%
    12:00 +23°C° 0 mm 1 mps 762 mmHg 24%
    13:00 +23°C° 0 mm 1 mps 761 mmHg 21%
    14:00 +24°C° 0 mm 1 mps 761 mmHg 18%
    15:00 +25°C° 0 mm 2 mps 761 mmHg 16%
    16:00 +23°C° 0 mm 2 mps 761 mmHg 18%
    17:00 +21°C° 0 mm 2 mps 761 mmHg 20%
    18:00 +20°C° 0 mm 2 mps 761 mmHg 22%
    19:00 +19°C° 0 mm 2 mps 762 mmHg 24%
    20:00 +19°C° 0 mm 2 mps 762 mmHg 25%
    21:00 +18°C° 0 mm 2 mps 763 mmHg 27%
    22:00 +18°C° 0 mm 3 mps 763 mmHg 30%
    23:00 +17°C° 0 mm 3 mps 763 mmHg 33%

    Day after tomorrow, 23 February, Sunday

    Time Temperature Precipitation Wind Pressure Humidity
    00:00 +16°C° 0 mm 3 mps 763 mmHg 36%
    01:00 +16°C° 0 mm 3 mps 763 mmHg 38%
    02:00 +14°C° 0 mm 3 mps 763 mmHg 41%
    03:00 +14°C° 0 mm 3 mps 763 mmHg 44%
    04:00 +13°C° 0 mm 3 mps 763 mmHg 47%
    05:00 +13°C° 0 mm 3 mps 763 mmHg 51%
    06:00 +12°C° 0 mm 3 mps 764 mmHg 55%
    07:00 +13°C° 0 mm 4 mps 764 mmHg 54%
    08:00 +14°C° 0 mm 4 mps 765 mmHg 54%
    09:00 +15°C° 0 mm 4 mps 765 mmHg 53%
    10:00 +17°C° 0 mm 4 mps 765 mmHg 50%
    11:00 +18°C° 0 mm 3 mps 764 mmHg 46%
    12:00 +19°C° 0 mm 2 mps 764 mmHg 43%
    13:00 +19°C° 0 mm 2 mps 764 mmHg 40%
    14:00 +21°C° 0 mm 1 mps 763 mmHg 38%
    15:00 +21°C° 0 mm 1 mps 763 mmHg 35%
    16:00 +21°C° 0 mm 1 mps 763 mmHg 37%
    17:00 +20°C° 0 mm 1 mps 763 mmHg 39%
    18:00 +19°C° 0 mm 1 mps 763 mmHg 40%
    19:00 +19°C° 0 mm 1 mps 763 mmHg 42%
    20:00 +18°C° 0 mm 1 mps 763 mmHg 44%
    21:00 +15°C° 0 mm 0 mps 763 mmHg 46%
    22:00 +15°C° 0 mm 0 mps 763 mmHg 47%
    23:00 +14°C° 0 mm 0 mps 763 mmHg 48%

    24 February, Monday

    Time Temperature Precipitation Wind Pressure Humidity
    00:00 +14°C° 0 mm 0 mps 763 mmHg 49%
    01:00 +13°C° 0 mm 0 mps 763 mmHg 50%
    02:00 +13°C° 0 mm 0 mps 762 mmHg 51%
    03:00 +12°C° 0 mm 0 mps 762 mmHg 52%
    04:00 +12°C° 0 mm 0 mps 762 mmHg 52%
    05:00 +12°C° 0 mm 0 mps 762 mmHg 53%
    06:00 +11°C° 0 mm 0 mps 761 mmHg 54%
    07:00 +13°C° 0 mm 0 mps 762 mmHg 48%
    08:00 +15°C° 0 mm 0 mps 762 mmHg 42%
    09:00 +19°C° 0 mm 1 mps 762 mmHg 36%
    10:00 +21°C° 0 mm 1 mps 761 mmHg 33%
    11:00 +22°C° 0 mm 1 mps 761 mmHg 30%
    12:00 +23°C° 0 mm 1 mps 760 mmHg 27%
    13:00 +24°C° 0 mm 1 mps 760 mmHg 25%
    14:00 +25°C° 0 mm 1 mps 759 mmHg 23%
    15:00 +25°C° 0 mm 1 mps 759 mmHg 21%
    16:00 +24°C° 0 mm 1 mps 759 mmHg 24%
    17:00 +23°C° 0 mm 1 mps 758 mmHg 26%
    18:00 +22°C° 0 mm 1 mps 758 mmHg 29%
    19:00 +21°C° 0 mm 1 mps 759 mmHg 31%
    20:00 +20°C° 0 mm 1 mps 759 mmHg 34%
    21:00 +17°C° 0 mm 0 mps 759 mmHg 37%
    22:00 +16°C° 0 mm 0 mps 759 mmHg 38%
    23:00 +16°C° 0 mm 0 mps 759 mmHg 39%

    25 February, Tuesday

    Time Temperature Precipitation Wind Pressure Humidity
    00:00 +15°C° 0 mm 0 mps 759 mmHg 40%
    01:00 +15°C° 0 mm 0 mps 758 mmHg 41%
    02:00 +14°C° 0 mm 0 mps 758 mmHg 41%
    03:00 +14°C° 0 mm 0 mps 757 mmHg 42%
    04:00 +13°C° 0 mm 0 mps 757 mmHg 42%
    05:00 +13°C° 0 mm 0 mps 757 mmHg 43%
    06:00 +13°C° 0 mm 0 mps 757 mmHg 43%
    07:00 +16°C° 0 mm 1 mps 757 mmHg 39%
    08:00 +19°C° 0 mm 1 mps 758 mmHg 34%
    09:00 +21°C° 0 mm 1 mps 758 mmHg 29%
    10:00 +22°C° 0 mm 1 mps 757 mmHg 27%
    11:00 +23°C° 0 mm 1 mps 757 mmHg 25%
    12:00 +24°C° 0 mm 1 mps 756 mmHg 22%
    13:00 +25°C° 0 mm 1 mps 756 mmHg 21%
    14:00 +26°C° 0 mm 2 mps 755 mmHg 19%
    15:00 +26°C° 0 mm 3 mps 755 mmHg 18%
    16:00 +25°C° 0 mm 2 mps 755 mmHg 19%
    17:00 +24°C° 0 mm 2 mps 755 mmHg 21%
    18:00 +22°C° 0 mm 1 mps 755 mmHg 22%
    19:00 +21°C° 0 mm 2 mps 755 mmHg 23%
    20:00 +20°C° 0 mm 2 mps 755 mmHg 24%
    21:00 +20°C° 0 mm 2 mps 755 mmHg 25%
    22:00 +19°C° 0 mm 3 mps 755 mmHg 26%
    23:00 +19°C° 0 mm 3 mps 755 mmHg 26%

    26 February, Wednesday

    Time Temperature Precipitation Wind Pressure Humidity
    00:00 +18°C° 0 mm 3 mps 755 mmHg 27%
    01:00 +18°C° 0 mm 4 mps 755 mmHg 30%
    02:00 +17°C° 0 mm 4 mps 754 mmHg 33%
    03:00 +17°C° 0 mm 4 mps 754 mmHg 36%
    04:00 +15°C° 0 mm 4 mps 754 mmHg 37%
    05:00 +15°C° 0 mm 5 mps 754 mmHg 39%
    06:00 +15°C° 0 mm 5 mps 754 mmHg 40%
    07:00 +16°C° 0 mm 5 mps 754 mmHg 35%
    08:00 +19°C° 0 mm 5 mps 754 mmHg 31%
    09:00 +20°C° 0 mm 5 mps 755 mmHg 27%
    10:00 +22°C° 0 mm 4 mps 754 mmHg 24%
    11:00 +23°C° 0 mm 4 mps 754 mmHg 21%
    12:00 +25°C° 0 mm 3 mps 754 mmHg 18%
    13:00 +26°C° 0 mm 3 mps 753 mmHg 17%
    14:00 +26°C° 0 mm 3 mps 753 mmHg 16%
    15:00 +27°C° 0 mm 4 mps 752 mmHg 15%
    16:00 +26°C° 0 mm 4 mps 753 mmHg 19%
    17:00 +23°C° 0 mm 4 mps 753 mmHg 22%
    18:00 +22°C° 0 mm 4 mps 753 mmHg 26%
    19:00 +21°C° 0 mm 4 mps 754 mmHg 29%
    20:00 +21°C° 0 mm 4 mps 754 mmHg 33%
    21:00 +20°C° 0 mm 4 mps 755 mmHg 36%
    22:00 +19°C° 0 mm 4 mps 755 mmHg 39%
    23:00 +19°C° 0 mm 4 mps 755 mmHg 42%
    Show more